Weather reports worldwide

Advertisment
Great Falls MT/Intl, United States of America (72775): temperature & dewpoint: 06.07.2020 07:00:00 - 12.07.2020 07:00:00 (MDT)Great Falls MT/Intl, United States of America (72775): wind speed & gusts: 06.07.2020 07:00:00 - 12.07.2020 07:00:00 (MDT)Great Falls MT/Intl, United States of America (72775): wind direction: 06.07.2020 07:00:00 - 12.07.2020 07:00:00 (MDT)Great Falls MT/Intl, United States of America (72775): reduced air pressure: 06.07.2020 07:00:00 - 12.07.2020 07:00:00 (MDT)Great Falls MT/Intl, United States of America (72775): visibility: 06.07.2020 07:00:00 - 12.07.2020 07:00:00 (MDT)Great Falls MT/Intl, United States of America (72775): precipitation: 06.07.2020 07:00:00 - 12.07.2020 07:00:00 (MDT)
Date & Time tt [°C] td [°C] ff [km/h] ff [kn] fx [km/h] fx [kn] dd ppp [hPa] vv [km] rr [mm]
12.07.2020 07:00:00 16,1 7,8 11 6 - - SSE 1010,6 16 -
12.07.2020 06:00:00 14,4 6,1 16 9 - - WNW 1010,6 16 -
12.07.2020 05:00:00 12,2 7,2 15 8 - - W 1009,1 16 -
12.07.2020 04:00:00 15,6 6,1 16 9 - - SW 1007,7 16 -
12.07.2020 03:00:00 20,0 5,6 16 9 - - SSE 1007,6 16 -
12.07.2020 02:00:00 15,0 7,2 11 6 - - SE 1009,4 16 -
12.07.2020 01:00:00 16,1 7,2 - - - - - 1010,0 16 -
12.07.2020 00:00:00 20,0 5,6 13 7 - - ESE 1010,7 16 -
11.07.2020 23:00:00 20,6 6,1 16 9 - - SE 1011,5 16 -
11.07.2020 22:00:00 20,0 6,7 9 5 - - SSE 1012,2 16 -
11.07.2020 21:00:00 24,4 6,7 9 5 - - SSE 1012,3 16 -
11.07.2020 20:00:00 26,1 8,3 8 4 - - SSW 1012,8 16 -
11.07.2020 19:00:00 28,3 6,1 15 8 - - SW 1013,4 16 -
11.07.2020 18:00:00 29,4 6,1 16 9 - - SW 1014,5 16 -
11.07.2020 17:00:00 28,9 6,1 15 8 - - S 1015,1 16 -
11.07.2020 16:00:00 28,9 5,0 15 8 - - WSW 1015,7 16 -
11.07.2020 15:00:00 28,3 4,4 18 10 - - SSW 1016,7 16 -
11.07.2020 14:00:00 26,7 5,0 18 10 - - SW 1017,8 16 -
11.07.2020 13:00:00 26,7 6,7 15 8 - - WSW 1018,0 16 -
11.07.2020 12:00:00 24,4 5,0 15 8 - - SW 1018,9 16 -
11.07.2020 11:00:00 22,8 7,2 16 9 - - SSW 1019,2 16 -
11.07.2020 10:00:00 21,1 7,2 16 9 - - SSW 1019,9 16 -
11.07.2020 09:00:00 18,3 6,7 15 8 - - SSW 1019,9 16 -
11.07.2020 08:00:00 16,1 7,8 13 7 - - SSW 1020,0 16 -
11.07.2020 07:00:00 11,1 7,2 5 3 - - SW 1020,5 16 -
11.07.2020 06:00:00 8,3 4,4 0 0 - - N 1020,9 16 -
11.07.2020 05:00:00 10,6 5,0 0 0 - - N 1020,6 16 -
11.07.2020 04:00:00 10,6 5,6 8 4 - - SSW 1020,8 16 -
11.07.2020 03:00:00 10,6 6,1 15 8 - - S 1021,2 16 -
11.07.2020 02:00:00 10,0 5,6 13 7 - - SW 1021,4 16 -
11.07.2020 01:00:00 13,3 6,1 11 6 - - S 1020,9 16 -
11.07.2020 00:00:00 12,2 6,1 13 7 - - SSW 1020,7 16 -
10.07.2020 23:00:00 12,2 6,1 13 7 - - SW 1020,6 16 -
10.07.2020 22:00:00 13,9 6,7 15 8 - - W 1020,5 16 -
10.07.2020 21:00:00 19,4 6,7 11 6 - - W 1019,9 16 -
10.07.2020 20:00:00 22,2 6,7 16 9 - - W 1019,1 16 -
10.07.2020 19:00:00 23,9 4,4 28 15 - - W 1018,3 16 -
10.07.2020 18:00:00 24,4 5,6 26 14 - - WSW 1018,5 16 -
10.07.2020 17:00:00 24,4 5,6 26 14 - - W 1018,4 16 -
10.07.2020 16:00:00 23,9 6,7 22 12 - - W 1018,1 16 -
10.07.2020 15:00:00 21,7 8,3 22 12 48 26 SW 1018,0 16 -
10.07.2020 14:00:00 20,6 8,3 22 12 - - SW 1017,8 16 -
10.07.2020 13:00:00 21,1 8,9 35 19 48 26 SW 1017,2 16 -
10.07.2020 12:00:00 20,6 7,8 31 17 - - WSW 1016,6 16 -
10.07.2020 11:00:00 17,8 9,4 29 16 - - SW 1017,0 16 -
10.07.2020 10:00:00 13,3 9,4 21 11 - - SSW 1017,4 16 0,8
10.07.2020 09:00:00 11,7 9,4 16 9 - - S 1017,1 11 2,8
10.07.2020 08:00:00 11,7 9,4 26 14 63 34 SSW 1017,5 8 0,5
10.07.2020 07:00:00 13,3 6,7 21 11 - - SW 1014,5 16 -
10.07.2020 06:00:00 10,6 6,1 13 7 - - SSW 1013,0 16 -
10.07.2020 05:00:00 9,4 6,1 13 7 - - SW 1012,1 16 -
10.07.2020 04:00:00 10,0 6,7 13 7 - - WNW 1011,2 16 -
10.07.2020 03:00:00 12,2 7,8 18 10 - - WSW 1011,1 16 -
10.07.2020 02:00:00 12,2 8,3 15 8 - - SW 1011,1 16 -
10.07.2020 01:00:00 12,8 7,8 9 5 - - W 1011,7 16 -
10.07.2020 00:00:00 17,2 9,4 9 5 - - ESE 1011,2 16 -
09.07.2020 23:00:00 16,7 7,8 5 3 - - SE 1011,6 16 -
09.07.2020 22:00:00 18,9 8,3 8 4 - - S 1011,0 16 -
09.07.2020 21:00:00 22,2 10,0 16 9 - - SSE 1010,7 16 -
09.07.2020 20:00:00 25,0 9,4 15 8 - - SE 1010,5 16 -
09.07.2020 19:00:00 26,1 8,3 16 9 - - SE 1010,8 16 -
09.07.2020 18:00:00 26,7 5,6 11 6 - - SE 1011,3 16 -
09.07.2020 17:00:00 26,1 4,4 0 0 - - N 1011,3 16 -
09.07.2020 16:00:00 26,1 5,0 15 8 - - S 1011,4 16 -
09.07.2020 15:00:00 25,6 4,4 0 0 - - N 1011,8 16 -
09.07.2020 14:00:00 24,4 5,0 5 3 - - - 1012,3 16 -
09.07.2020 13:00:00 22,8 4,4 0 0 - - N 1013,2 16 -
09.07.2020 12:00:00 21,1 5,0 9 5 - - - 1013,8 16 -
09.07.2020 11:00:00 19,4 5,6 13 7 - - SSE 1014,1 16 -
09.07.2020 10:00:00 18,3 5,6 11 6 - - ESE 1014,6 16 -
09.07.2020 09:00:00 15,6 6,1 5 3 - - SE 1014,8 16 -
09.07.2020 08:00:00 13,3 6,1 0 0 - - N 1014,5 16 -
09.07.2020 07:00:00 9,4 6,1 0 0 - - N 1015,1 16 -
09.07.2020 06:00:00 5,6 2,8 0 0 - - N 1015,6 16 -
09.07.2020 05:00:00 6,7 3,9 9 5 - - SW 1015,4 16 -
09.07.2020 04:00:00 8,3 3,9 5 3 - - SSW 1015,2 16 -
09.07.2020 03:00:00 8,9 3,9 5 3 - - NNE 1015,0 16 -
09.07.2020 02:00:00 10,0 4,4 5 3 - - NE 1015,3 16 -
09.07.2020 01:00:00 10,0 4,4 8 4 - - ESE 1015,1 16 -
09.07.2020 00:00:00 12,2 4,4 5 3 - - SE 1014,8 16 -
08.07.2020 23:00:00 12,8 3,9 5 3 - - NW 1014,4 16 -
08.07.2020 22:00:00 15,0 3,9 0 0 - - N 1013,9 16 -
08.07.2020 21:00:00 17,8 5,0 11 6 - - N 1013,0 16 -
08.07.2020 20:00:00 21,7 1,7 18 10 - - WNW 1012,1 16 -
08.07.2020 19:00:00 22,8 1,7 18 10 - - WNW 1011,8 16 -
08.07.2020 18:00:00 23,3 2,2 28 15 - - W 1011,4 16 -
08.07.2020 17:00:00 23,9 3,3 29 16 50 27 W 1011,2 16 -
08.07.2020 16:00:00 23,3 2,2 37 20 59 32 W 1011,1 16 -
08.07.2020 15:00:00 22,8 3,3 37 20 59 32 W 1010,6 16 -
08.07.2020 14:00:00 21,1 3,9 39 21 59 32 WSW 1010,6 16 -
08.07.2020 13:00:00 21,7 2,8 37 20 61 33 W 1010,5 16 -
08.07.2020 12:00:00 19,4 2,2 35 19 59 32 W 1010,8 16 -
08.07.2020 11:00:00 19,4 2,2 41 22 59 32 W 1010,5 16 -
08.07.2020 10:00:00 17,8 3,9 35 19 59 32 SW 1010,1 16 -
08.07.2020 09:00:00 16,1 3,9 41 22 59 32 SW 1009,7 16 -
08.07.2020 08:00:00 15,0 3,3 35 19 57 31 SW 1009,4 16 -
08.07.2020 07:00:00 12,8 2,8 28 15 48 26 SW 1009,6 16 -
08.07.2020 06:00:00 11,7 2,8 34 18 50 27 SW 1009,7 16 -
08.07.2020 05:00:00 12,2 2,8 34 18 48 26 SW 1009,3 16 -
08.07.2020 04:00:00 11,1 3,3 18 10 - - SSW 1009,7 16 -
08.07.2020 03:00:00 12,8 1,1 26 14 - - WSW 1009,6 16 -
08.07.2020 02:00:00 12,8 2,8 29 16 - - WSW 1010,3 16 -
08.07.2020 01:00:00 - - - - - - - - - -
08.07.2020 00:00:00 13,3 5,6 22 12 - - WSW 1009,7 16 -
07.07.2020 23:00:00 12,8 4,4 9 5 - - W 1009,5 16 -
07.07.2020 22:00:00 13,9 4,4 11 6 - - W 1008,6 16 -
07.07.2020 21:00:00 18,3 5,0 21 11 - - W 1007,5 16 -
07.07.2020 20:00:00 21,1 5,0 24 13 - - W 1005,9 16 -
07.07.2020 19:00:00 22,2 5,0 22 12 - - WNW 1006,5 16 -
07.07.2020 18:00:00 21,7 6,7 16 9 - - WNW 1007,1 16 -
07.07.2020 17:00:00 22,8 8,3 15 8 - - SW 1006,6 16 -
07.07.2020 16:00:00 22,2 8,9 18 10 - - SW 1007,1 16 -
07.07.2020 15:00:00 20,6 10,6 18 10 - - W 1007,0 16 0,3
07.07.2020 14:00:00 16,1 12,2 18 10 - - WSW 1008,7 11 0,3
07.07.2020 13:00:00 18,3 9,4 28 15 - - NNW 1005,0 16 0,3
07.07.2020 12:00:00 21,1 10,0 24 13 - - NW 1004,6 16 0,0
07.07.2020 11:00:00 22,2 12,2 22 12 - - WNW 1004,2 16 -
07.07.2020 10:00:00 20,6 12,8 13 7 - - WNW 1004,1 16 -
07.07.2020 09:00:00 18,3 12,2 15 8 - - W 1004,5 16 -
07.07.2020 08:00:00 21,1 11,7 5 3 - - N 1003,4 16 -
07.07.2020 07:00:00 14,4 11,1 0 0 - - N 1005,2 16 -
07.07.2020 06:00:00 13,9 10,6 0 0 - - N 1005,5 16 -
07.07.2020 05:00:00 16,7 10,6 0 0 - - N 1005,6 16 -
07.07.2020 04:00:00 14,4 9,4 0 0 - - N 1007,2 16 -
07.07.2020 03:00:00 15,6 9,4 9 5 - - SSE 1007,5 16 -
07.07.2020 02:00:00 13,9 9,4 0 0 - - N 1008,5 16 -
07.07.2020 01:00:00 19,4 10,6 16 9 - - ESE 1008,3 16 -
07.07.2020 00:00:00 18,9 10,6 16 9 - - ESE 1009,0 16 -
06.07.2020 23:00:00 19,4 11,1 16 9 - - ESE 1009,7 16 -
06.07.2020 22:00:00 20,6 11,1 18 10 - - ESE 1010,1 16 -
06.07.2020 21:00:00 22,2 11,7 15 8 - - ESE 1010,2 16 -
06.07.2020 20:00:00 25,0 10,0 16 9 - - E 1010,2 16 -
06.07.2020 19:00:00 26,1 8,9 15 8 - - ESE 1010,8 16 -
06.07.2020 18:00:00 26,7 8,9 15 8 - - E 1011,4 16 -
06.07.2020 17:00:00 26,7 7,8 - - - - - 1011,9 16 -
06.07.2020 16:00:00 26,7 7,8 5 3 - - - 1011,9 16 -
06.07.2020 15:00:00 26,7 5,0 - - - - - 1012,2 16 -
06.07.2020 14:00:00 26,1 3,3 5 3 - - - 1012,8 16 -
06.07.2020 13:00:00 24,4 7,2 5 3 - - - 1013,7 16 -
06.07.2020 12:00:00 23,3 8,3 - - - - - 1014,0 16 -
06.07.2020 11:00:00 21,7 7,2 5 3 - - - 1014,5 16 -
06.07.2020 10:00:00 18,9 8,3 11 6 - - WSW 1015,0 16 -
06.07.2020 09:00:00 16,7 8,3 11 6 - - SW 1015,3 16 -
06.07.2020 08:00:00 14,4 8,3 18 10 - - SW 1015,3 16 -
06.07.2020 07:00:00 11,7 8,9 9 5 - - SSW 1015,4 16 -

tt = temperature
td = dewpoint
ff = wind speed
fx = gusts
dd = wind direction
ppp = reduced air pressure
vv = visibility
rr = precipitation

Next stations